When you browse on this site, cookies collect data to enhance your experience and personalize the content and advertising you see.
Visit our Privacy Policy to learn more. By continuing to use the site, you agree to this use of cookies and data.
EN

Hourly Weather Er Reina

Today, 7 August, Friday

Time Temperature Precipitation Wind Pressure Humidity
00:00 +23°C° 0 mm 1 mps 728 mmHg 86%
01:00 +23°C° 0 mm 1 mps 727 mmHg 87%
02:00 +22°C° 0 mm 1 mps 727 mmHg 87%
03:00 +22°C° 0 mm 1 mps 727 mmHg 87%
04:00 +22°C° 0 mm 1 mps 727 mmHg 88%
05:00 +22°C° 0 mm 1 mps 727 mmHg 89%
06:00 +24°C° 0 mm 1 mps 728 mmHg 79%
07:00 +26°C° 0 mm 2 mps 728 mmHg 69%
08:00 +29°C° 0 mm 2 mps 728 mmHg 59%
09:00 +31°C° 0 mm 3 mps 729 mmHg 52%
10:00 +34°C° 0 mm 4 mps 729 mmHg 46%
11:00 +36°C° 0 mm 5 mps 729 mmHg 39%
12:00 +36°C° 0 mm 5 mps 729 mmHg 40%
13:00 +36°C° 0 mm 6 mps 728 mmHg 40%
14:00 +38°C° 0 mm 7 mps 728 mmHg 41%
15:00 +35°C° 0 mm 6 mps 727 mmHg 46%
16:00 +34°C° 0 mm 6 mps 727 mmHg 51%
17:00 +32°C° 0 mm 5 mps 727 mmHg 55%
18:00 +29°C° 0 mm 4 mps 727 mmHg 65%
19:00 +27°C° 0 mm 3 mps 727 mmHg 75%
20:00 +25°C° 0 mm 2 mps 727 mmHg 85%
21:00 +25°C° 0 mm 2 mps 727 mmHg 86%
22:00 +24°C° 0 mm 1 mps 727 mmHg 87%
23:00 +24°C° 0 mm 1 mps 727 mmHg 88%

Tomorrow, 8 August, Saturday

Time Temperature Precipitation Wind Pressure Humidity
00:00 +24°C° 0 mm 1 mps 727 mmHg 90%
01:00 +24°C° 0 mm 1 mps 726 mmHg 91%
02:00 +23°C° 0 mm 1 mps 726 mmHg 92%
03:00 +24°C° 0 mm 1 mps 726 mmHg 92%
04:00 +24°C° 0 mm 1 mps 726 mmHg 92%
05:00 +24°C° 0 mm 1 mps 727 mmHg 92%
06:00 +26°C° 0 mm 2 mps 727 mmHg 85%
07:00 +27°C° 0 mm 2 mps 727 mmHg 77%
08:00 +29°C° 0 mm 3 mps 728 mmHg 69%
09:00 +32°C° 0 mm 4 mps 728 mmHg 59%
10:00 +34°C° 0 mm 4 mps 728 mmHg 49%
11:00 +36°C° 0 mm 5 mps 728 mmHg 39%
12:00 +36°C° 0 mm 6 mps 727 mmHg 39%
13:00 +36°C° 0 mm 7 mps 727 mmHg 39%
14:00 +36°C° 0 mm 7 mps 727 mmHg 39%
15:00 +34°C° 0 mm 7 mps 726 mmHg 46%
16:00 +33°C° 0 mm 6 mps 726 mmHg 52%
17:00 +30°C° 0 mm 6 mps 726 mmHg 58%
18:00 +29°C° 0 mm 5 mps 726 mmHg 67%
19:00 +27°C° 0 mm 4 mps 726 mmHg 75%
20:00 +25°C° 0 mm 3 mps 726 mmHg 84%
21:00 +25°C° 0 mm 2 mps 726 mmHg 85%
22:00 +24°C° 0 mm 2 mps 726 mmHg 85%
23:00 +24°C° 0 mm 2 mps 726 mmHg 86%

Day after tomorrow, 9 August, Sunday

Time Temperature Precipitation Wind Pressure Humidity
00:00 +24°C° 0 mm 2 mps 726 mmHg 86%
01:00 +24°C° 0 mm 2 mps 725 mmHg 86%
02:00 +24°C° 0 mm 2 mps 725 mmHg 87%
03:00 +23°C° 0 mm 2 mps 725 mmHg 86%
04:00 +23°C° 0 mm 2 mps 725 mmHg 85%
05:00 +23°C° 0 mm 2 mps 725 mmHg 84%
06:00 +25°C° 0 mm 3 mps 725 mmHg 74%
07:00 +27°C° 0 mm 3 mps 726 mmHg 64%
08:00 +29°C° 0 mm 4 mps 726 mmHg 54%
09:00 +30°C° 0 mm 5 mps 726 mmHg 50%
10:00 +33°C° 0 mm 6 mps 726 mmHg 45%
11:00 +34°C° 0 mm 6 mps 726 mmHg 41%
12:00 +34°C° 0 mm 7 mps 726 mmHg 43%
13:00 +33°C° 0 mm 7 mps 726 mmHg 45%
14:00 +33°C° 0 mm 7 mps 726 mmHg 46%
15:00 +32°C° 0 mm 7 mps 726 mmHg 51%
16:00 +30°C° 0 mm 7 mps 726 mmHg 56%
17:00 +29°C° 0 mm 6 mps 725 mmHg 61%
18:00 +28°C° 0 mm 5 mps 726 mmHg 68%
19:00 +26°C° 0 mm 4 mps 726 mmHg 75%
20:00 +25°C° 0 mm 2 mps 726 mmHg 83%
21:00 +25°C° 0 mm 2 mps 726 mmHg 82%
22:00 +25°C° 0 mm 2 mps 726 mmHg 82%
23:00 +25°C° 0 mm 2 mps 727 mmHg 82%

10 August, Monday

Time Temperature Precipitation Wind Pressure Humidity
00:00 +24°C° 0 mm 2 mps 726 mmHg 81%
01:00 +24°C° 0 mm 2 mps 726 mmHg 80%
02:00 +24°C° 0 mm 2 mps 726 mmHg 79%
03:00 +24°C° 0 mm 2 mps 726 mmHg 79%
04:00 +24°C° 0 mm 2 mps 726 mmHg 80%
05:00 +23°C° 0 mm 1 mps 726 mmHg 80%
06:00 +25°C° 0 mm 2 mps 726 mmHg 71%
07:00 +27°C° 0 mm 3 mps 727 mmHg 62%
08:00 +29°C° 0 mm 3 mps 727 mmHg 54%
09:00 +30°C° 0 mm 4 mps 727 mmHg 50%
10:00 +32°C° 0 mm 5 mps 728 mmHg 46%
11:00 +33°C° 0 mm 5 mps 728 mmHg 43%
12:00 +33°C° 0 mm 6 mps 728 mmHg 43%
13:00 +33°C° 0 mm 6 mps 727 mmHg 43%
14:00 +33°C° 0 mm 7 mps 727 mmHg 44%
15:00 +32°C° 0 mm 6 mps 727 mmHg 48%
16:00 +30°C° 0 mm 6 mps 727 mmHg 53%
17:00 +29°C° 0 mm 5 mps 727 mmHg 57%
18:00 +28°C° 0 mm 4 mps 727 mmHg 64%
19:00 +26°C° 0 mm 3 mps 727 mmHg 71%
20:00 +24°C° 0 mm 2 mps 727 mmHg 78%
21:00 +24°C° 0 mm 2 mps 727 mmHg 80%
22:00 +24°C° 0 mm 1 mps 727 mmHg 82%
23:00 +23°C° 0 mm 1 mps 727 mmHg 83%

11 August, Tuesday

Time Temperature Precipitation Wind Pressure Humidity
00:00 +23°C° 0 mm 1 mps 727 mmHg 83%
01:00 +23°C° 0 mm 1 mps 727 mmHg 84%
02:00 +23°C° 0 mm 1 mps 727 mmHg 84%
03:00 +23°C° 0 mm 1 mps 727 mmHg 84%
04:00 +23°C° 0 mm 1 mps 727 mmHg 85%
05:00 +22°C° 0 mm 1 mps 727 mmHg 86%
06:00 +24°C° 0 mm 1 mps 727 mmHg 76%
07:00 +26°C° 0 mm 2 mps 727 mmHg 67%
08:00 +28°C° 0 mm 3 mps 728 mmHg 58%
09:00 +30°C° 0 mm 4 mps 728 mmHg 53%
10:00 +32°C° 0 mm 5 mps 728 mmHg 49%
11:00 +33°C° 0 mm 5 mps 728 mmHg 44%
12:00 +33°C° 0 mm 6 mps 728 mmHg 45%
13:00 +33°C° 0 mm 6 mps 727 mmHg 46%
14:00 +33°C° 0 mm 7 mps 727 mmHg 47%
15:00 +32°C° 0 mm 7 mps 727 mmHg 52%
16:00 +30°C° 0 mm 6 mps 727 mmHg 57%
17:00 +29°C° 0 mm 6 mps 726 mmHg 62%
18:00 +28°C° 0 mm 5 mps 726 mmHg 69%
19:00 +26°C° 0 mm 3 mps 726 mmHg 77%
20:00 +25°C° 0 mm 2 mps 726 mmHg 84%
21:00 +25°C° 0 mm 2 mps 726 mmHg 85%
22:00 +24°C° 0 mm 1 mps 726 mmHg 86%
23:00 +24°C° 0 mm 1 mps 726 mmHg 87%

12 August, Wednesday

Time Temperature Precipitation Wind Pressure Humidity
00:00 +24°C° 0 mm 1 mps 726 mmHg 85%
01:00 +24°C° 0 mm 1 mps 726 mmHg 83%
02:00 +25°C° 0 mm 1 mps 725 mmHg 81%
03:00 +24°C° 0 mm 1 mps 725 mmHg 80%
04:00 +24°C° 0 mm 1 mps 725 mmHg 80%
05:00 +24°C° 0 mm 1 mps 725 mmHg 79%
06:00 +26°C° 0 mm 2 mps 726 mmHg 71%
07:00 +28°C° 0 mm 3 mps 726 mmHg 64%
08:00 +29°C° 0 mm 3 mps 726 mmHg 56%
09:00 +30°C° 0 mm 4 mps 726 mmHg 55%
10:00 +32°C° 0 mm 5 mps 726 mmHg 54%
11:00 +32°C° 0 mm 5 mps 726 mmHg 53%
12:00 +32°C° 0 mm 6 mps 726 mmHg 53%
13:00 +33°C° 0 mm 6 mps 726 mmHg 53%
14:00 +33°C° 0 mm 6 mps 725 mmHg 52%
15:00 +32°C° 0 mm 6 mps 725 mmHg 56%
16:00 +30°C° 0 mm 5 mps 725 mmHg 59%
17:00 +30°C° 0 mm 5 mps 725 mmHg 63%
18:00 +28°C° 0 mm 4 mps 725 mmHg 69%
19:00 +27°C° 0 mm 3 mps 725 mmHg 76%
20:00 +26°C° 0 mm 2 mps 726 mmHg 82%
21:00 +25°C° 0 mm 2 mps 726 mmHg 83%
22:00 +25°C° 0 mm 2 mps 725 mmHg 85%
23:00 +25°C° 0 mm 2 mps 725 mmHg 86%
Show more